When you browse on this site, cookies collect data to enhance your experience and personalize the content and advertising you see.
Visit our Privacy Policy to learn more. By continuing to use the site, you agree to this use of cookies and data.
  • în România
  • Lista ţărilor
  • Pe 7 zile
  • Temperatura apei
  • Hartă satelitară
  • Meteo pe hartă
  • Widget-uri
  • user-avatar
    Intrare

    Meteo pe oră la Gopalganj

    Astăzi, 16 Iulie, Marţi

    Timp Temperatura Precipitaţii Vânt Presiune Umiditate
    00:00 +31°C° 0 mm 2 m/s 743 mmHg 78%
    01:00 +30°C° 1.7 mm 3 m/s 743 mmHg 80%
    02:00 +30°C° 1.7 mm 3 m/s 742 mmHg 82%
    03:00 +30°C° 1.7 mm 3 m/s 742 mmHg 84%
    04:00 +29°C° 1.7 mm 3 m/s 742 mmHg 85%
    05:00 +29°C° 1.7 mm 4 m/s 743 mmHg 85%
    06:00 +29°C° 0 mm 2 m/s 743 mmHg 85%
    07:00 +30°C° 0.4 mm 2 m/s 743 mmHg 80%
    08:00 +32°C° 0.4 mm 2 m/s 744 mmHg 74%
    09:00 +34°C° 0.4 mm 2 m/s 744 mmHg 68%
    10:00 +35°C° 0.1 mm 2 m/s 744 mmHg 62%
    11:00 +36°C° 0.1 mm 2 m/s 744 mmHg 55%
    12:00 +37°C° 0 mm 2 m/s 745 mmHg 52%
    13:00 +38°C° 0 mm 2 m/s 745 mmHg 49%
    14:00 +39°C° 0 mm 2 m/s 744 mmHg 45%
    15:00 +39°C° 0 mm 2 m/s 744 mmHg 42%
    16:00 +39°C° 0 mm 2 m/s 743 mmHg 44%
    17:00 +39°C° 0 mm 2 m/s 743 mmHg 46%
    18:00 +38°C° 0 mm 2 m/s 743 mmHg 48%
    19:00 +37°C° 0 mm 2 m/s 743 mmHg 54%
    20:00 +35°C° 0 mm 2 m/s 743 mmHg 61%
    21:00 +34°C° 0 mm 2 m/s 743 mmHg 67%
    22:00 +34°C° 0 mm 2 m/s 744 mmHg 69%
    23:00 +32°C° 0 mm 2 m/s 744 mmHg 71%

    Mâine, 17 Iulie, Miercuri

    Timp Temperatura Precipitaţii Vânt Presiune Umiditate
    00:00 +32°C° 0 mm 1 m/s 744 mmHg 73%
    01:00 +32°C° 0 mm 2 m/s 744 mmHg 74%
    02:00 +31°C° 0 mm 2 m/s 743 mmHg 76%
    03:00 +31°C° 0 mm 2 m/s 743 mmHg 77%
    04:00 +31°C° 0.1 mm 2 m/s 743 mmHg 80%
    05:00 +30°C° 0.1 mm 2 m/s 743 mmHg 82%
    06:00 +30°C° 0.1 mm 2 m/s 743 mmHg 84%
    07:00 +31°C° 0.5 mm 2 m/s 744 mmHg 77%
    08:00 +32°C° 0.5 mm 2 m/s 744 mmHg 71%
    09:00 +35°C° 0.5 mm 2 m/s 744 mmHg 64%
    10:00 +36°C° 0.2 mm 2 m/s 744 mmHg 59%
    11:00 +37°C° 0.2 mm 2 m/s 744 mmHg 53%
    12:00 +38°C° 0.2 mm 2 m/s 744 mmHg 47%
    13:00 +39°C° 0 mm 2 m/s 744 mmHg 45%
    14:00 +39°C° 0 mm 2 m/s 743 mmHg 43%
    15:00 +40°C° 0 mm 2 m/s 743 mmHg 42%
    16:00 +39°C° 0 mm 2 m/s 742 mmHg 44%
    17:00 +39°C° 0 mm 2 m/s 742 mmHg 47%
    18:00 +39°C° 0 mm 1 m/s 742 mmHg 50%
    19:00 +37°C° 0 mm 1 m/s 742 mmHg 53%
    20:00 +36°C° 0 mm 1 m/s 743 mmHg 55%
    21:00 +35°C° 0 mm 1 m/s 743 mmHg 58%
    22:00 +36°C° 0 mm 2 m/s 743 mmHg 61%
    23:00 +35°C° 0 mm 2 m/s 743 mmHg 63%

    Poimâine, 18 Iulie, Joi

    Timp Temperatura Precipitaţii Vânt Presiune Umiditate
    00:00 +35°C° 0 mm 2 m/s 743 mmHg 65%
    01:00 +34°C° 0 mm 2 m/s 743 mmHg 67%
    02:00 +34°C° 0 mm 2 m/s 742 mmHg 70%
    03:00 +33°C° 0 mm 3 m/s 742 mmHg 72%
    04:00 +32°C° 1.1 mm 2 m/s 742 mmHg 75%
    05:00 +31°C° 1.1 mm 2 m/s 742 mmHg 77%
    06:00 +30°C° 1.1 mm 2 m/s 743 mmHg 79%
    07:00 +32°C° 0.1 mm 2 m/s 743 mmHg 72%
    08:00 +35°C° 0.1 mm 2 m/s 743 mmHg 66%
    09:00 +36°C° 0.1 mm 3 m/s 744 mmHg 59%
    10:00 +37°C° 0.1 mm 2 m/s 744 mmHg 54%
    11:00 +39°C° 0.1 mm 1 m/s 744 mmHg 48%
    12:00 +40°C° 0.1 mm 1 m/s 744 mmHg 43%
    13:00 +40°C° 0 mm 1 m/s 743 mmHg 41%
    14:00 +41°C° 0 mm 1 m/s 743 mmHg 40%
    15:00 +41°C° 0 mm 2 m/s 742 mmHg 38%
    16:00 +41°C° 0 mm 2 m/s 742 mmHg 40%
    17:00 +40°C° 0 mm 2 m/s 742 mmHg 43%
    18:00 +40°C° 0 mm 2 m/s 741 mmHg 45%
    19:00 +39°C° 0 mm 2 m/s 741 mmHg 49%
    20:00 +38°C° 0 mm 2 m/s 742 mmHg 53%
    21:00 +37°C° 0 mm 2 m/s 742 mmHg 57%
    22:00 +36°C° 0 mm 2 m/s 742 mmHg 59%
    23:00 +36°C° 0 mm 2 m/s 742 mmHg 62%

    19 Iulie, Vineri

    Timp Temperatura Precipitaţii Vânt Presiune Umiditate
    00:00 +35°C° 0 mm 2 m/s 742 mmHg 65%
    01:00 +35°C° 0 mm 2 m/s 742 mmHg 66%
    02:00 +35°C° 0 mm 2 m/s 742 mmHg 66%
    03:00 +34°C° 0 mm 2 m/s 741 mmHg 67%
    04:00 +34°C° 0 mm 2 m/s 742 mmHg 69%
    05:00 +34°C° 0 mm 2 m/s 742 mmHg 71%
    06:00 +32°C° 0 mm 2 m/s 742 mmHg 73%
    07:00 +34°C° 0 mm 2 m/s 743 mmHg 69%
    08:00 +36°C° 0 mm 2 m/s 743 mmHg 64%
    09:00 +37°C° 0 mm 2 m/s 744 mmHg 59%
    10:00 +38°C° 0 mm 2 m/s 744 mmHg 54%
    11:00 +40°C° 0 mm 1 m/s 744 mmHg 48%
    12:00 +41°C° 0 mm 1 m/s 744 mmHg 42%
    13:00 +40°C° 0 mm 2 m/s 743 mmHg 44%
    14:00 +40°C° 0 mm 2 m/s 743 mmHg 45%
    15:00 +40°C° 0 mm 3 m/s 742 mmHg 47%
    16:00 +40°C° 0 mm 2 m/s 742 mmHg 47%
    17:00 +40°C° 0 mm 2 m/s 742 mmHg 47%
    18:00 +40°C° 0 mm 2 m/s 741 mmHg 47%
    19:00 +39°C° 0 mm 2 m/s 742 mmHg 50%
    20:00 +38°C° 0 mm 2 m/s 742 mmHg 53%
    21:00 +37°C° 0 mm 2 m/s 742 mmHg 56%
    22:00 +37°C° 0 mm 2 m/s 742 mmHg 58%
    23:00 +36°C° 0 mm 2 m/s 742 mmHg 60%

    20 Iulie, Sâmbătă

    Timp Temperatura Precipitaţii Vânt Presiune Umiditate
    00:00 +36°C° 0 mm 3 m/s 743 mmHg 62%
    01:00 +35°C° 0 mm 3 m/s 742 mmHg 65%
    02:00 +35°C° 0 mm 2 m/s 742 mmHg 67%
    03:00 +35°C° 0 mm 2 m/s 742 mmHg 70%
    04:00 +34°C° 0.2 mm 2 m/s 742 mmHg 72%
    05:00 +34°C° 0.2 mm 2 m/s 743 mmHg 73%
    06:00 +33°C° 0.2 mm 3 m/s 743 mmHg 75%
    07:00 +35°C° 0.2 mm 3 m/s 743 mmHg 71%
    08:00 +36°C° 0.2 mm 3 m/s 744 mmHg 67%
    09:00 +37°C° 0.2 mm 3 m/s 744 mmHg 63%
    10:00 +38°C° 0.1 mm 3 m/s 744 mmHg 57%
    11:00 +39°C° 0.1 mm 2 m/s 744 mmHg 50%
    12:00 +41°C° 0.1 mm 2 m/s 744 mmHg 44%
    13:00 +41°C° 0 mm 1 m/s 743 mmHg 43%
    14:00 +41°C° 0 mm 1 m/s 743 mmHg 41%
    15:00 +41°C° 0 mm 1 m/s 742 mmHg 40%
    16:00 +41°C° 0 mm 1 m/s 742 mmHg 42%
    17:00 +41°C° 0 mm 2 m/s 741 mmHg 44%
    18:00 +41°C° 0 mm 2 m/s 741 mmHg 46%
    19:00 +39°C° 0 mm 2 m/s 741 mmHg 50%
    20:00 +38°C° 0 mm 2 m/s 741 mmHg 54%
    21:00 +37°C° 0 mm 2 m/s 742 mmHg 58%
    22:00 +37°C° 0 mm 2 m/s 741 mmHg 59%
    23:00 +36°C° 0 mm 2 m/s 741 mmHg 61%

    21 Iulie, Duminică

    Timp Temperatura Precipitaţii Vânt Presiune Umiditate
    00:00 +36°C° 0 mm 3 m/s 741 mmHg 63%
    01:00 +35°C° 0 mm 3 m/s 741 mmHg 65%
    02:00 +35°C° 0 mm 3 m/s 741 mmHg 66%
    03:00 +35°C° 0 mm 2 m/s 740 mmHg 68%
    04:00 +34°C° 0.2 mm 3 m/s 740 mmHg 72%
    05:00 +33°C° 0.2 mm 3 m/s 741 mmHg 75%
    06:00 +33°C° 0.2 mm 3 m/s 741 mmHg 79%
    07:00 +34°C° 0.1 mm 3 m/s 741 mmHg 75%
    08:00 +35°C° 0.1 mm 4 m/s 742 mmHg 72%
    09:00 +36°C° 0.1 mm 4 m/s 742 mmHg 68%
    10:00 +37°C° 0.4 mm 3 m/s 742 mmHg 62%
    11:00 +38°C° 0.4 mm 2 m/s 742 mmHg 56%
    12:00 +40°C° 0.4 mm 2 m/s 742 mmHg 49%
    13:00 +40°C° 0 mm 2 m/s 741 mmHg 47%
    14:00 +41°C° 0 mm 2 m/s 740 mmHg 44%
    15:00 +42°C° 0 mm 2 m/s 740 mmHg 41%
    16:00 +41°C° 0.1 mm 2 m/s 740 mmHg 44%
    17:00 +41°C° 0.1 mm 2 m/s 740 mmHg 47%
    18:00 +40°C° 0.1 mm 2 m/s 740 mmHg 49%
    19:00 +39°C° 0.3 mm 2 m/s 740 mmHg 54%
    20:00 +37°C° 0.3 mm 2 m/s 740 mmHg 59%
    21:00 +36°C° 0.3 mm 3 m/s 740 mmHg 64%
    22:00 +36°C° 0.1 mm 3 m/s 740 mmHg 66%
    23:00 +35°C° 0.1 mm 3 m/s 740 mmHg 68%
    Arată mai mult